Weather History for KFSM - July, 2014

Change the Weather History Date:

Tuesday, July 15, 2014

  Actual Average Record
Temperature  
Mean Temperature 75 °F 82 °F  
Max Temperature 83 °F 93 °F 108 °F (1954)
Min Temperature 66 °F 72 °F 53 °F (1990)
Cooling Degree Days 10 17  
Month to date cooling degree days 236 251  
Year to date cooling degree days 952 880  
Since 1 June cooling degree days 674 636  
Growing Degree Days 26 (Base 50)    
Moisture  
Dew Point 56 °F    
Average Humidity 58    
Maximum Humidity 82    
Minimum Humidity 34    
Precipitation  
Precipitation 0.00 in 0.09 in 3.17 in (1961)
Month to date precipitation 0.98 1.67  
Year to date precipitation 20.17 25.14  
Sea Level Pressure  
Sea Level Pressure 30.03 in    
Wind  
Wind Speed 8 mph (North)    
Max Wind Speed 15 mph    
Max Gust Speed 22 mph    
Visibility 10 miles    
Events      
T = Trace of Precipitation, MM = Missing Value Source: NWS Daily Summary

Daily Weather History Graph

Daily Weather History Graph

Search for Another Location

Airport or City:

Trip Planner

Search our weather history database for the weather conditions in past years. The results will help you decide how hot, cold, wet, or windy it might be!

Date:

Astronomy

Jul. 15, 2014 Rise Set
Actual Time 6:14 AM CDT 8:32 PM CDT
Civil Twilight 5:44 AM CDT 9:01 PM CDT
Nautical Twilight 5:09 AM CDT 9:37 PM CDT
Astronomical Twilight 4:30 AM CDT 10:16 PM CDT
Moon 10:52 PM CDT (7/15) 9:59 AM CDT (7/15)
Length of Visible Light 15h 16m
Length of Day
14h 18m
Waning Gibbous, 85% of the Moon is Illuminated
Jul 15
Waning Gibbous
Jul 18
Last Quarter
Jul 26
New
Aug 3
First Quarter
Aug 10
Full

Hourly Weather History & Observations

Time (CDT) Temp. Heat Index Dew Point Humidity Pressure Visibility Wind Dir Wind Speed Gust Speed Precip Events Conditions
12:53 AM 75.0 °F - 70.0 °F 84% 30.00 in 10.0 mi NE 4.6 mph - N/A   Clear
1:53 AM 75.9 °F - 61.0 °F 60% 30.00 in 10.0 mi NE 10.4 mph - N/A   Overcast
2:53 AM 75.0 °F - 57.0 °F 53% 30.00 in 10.0 mi NNE 8.1 mph - N/A   Overcast
3:53 AM 73.9 °F - 57.9 °F 57% 30.02 in 10.0 mi North 3.5 mph - N/A   Overcast
4:53 AM 73.0 °F - 57.0 °F 57% 30.03 in 10.0 mi NNE 10.4 mph - N/A   Mostly Cloudy
5:53 AM 72.0 °F - 57.9 °F 61% 30.05 in 10.0 mi North 6.9 mph - N/A   Scattered Clouds
6:53 AM 70.0 °F - 57.0 °F 63% 30.07 in 10.0 mi North 6.9 mph - N/A   Clear
7:53 AM 73.0 °F - 57.0 °F 57% 30.07 in 10.0 mi North 10.4 mph - N/A   Clear
8:53 AM 73.9 °F - 57.0 °F 55% 30.08 in 10.0 mi NE 10.4 mph - N/A   Clear
9:53 AM 75.9 °F - 55.9 °F 50% 30.08 in 10.0 mi North 11.5 mph - N/A   Clear
10:53 AM 77.0 °F - 55.9 °F 48% 30.08 in 10.0 mi NNE 9.2 mph - N/A   Clear
11:53 AM 79.0 °F - 53.1 °F 40% 30.08 in 10.0 mi NNE 11.5 mph - N/A   Clear
12:53 PM 80.1 °F 79.9 °F 53.1 °F 39% 30.08 in 10.0 mi Variable 4.6 mph - N/A   Clear
1:53 PM 80.1 °F - 51.1 °F 36% 30.06 in 10.0 mi Variable 5.8 mph - N/A   Clear
2:53 PM 82.9 °F - 51.1 °F 33% 30.04 in 10.0 mi NNE 9.2 mph - N/A   Clear
3:53 PM 82.9 °F 81.8 °F 53.1 °F 36% 30.02 in 10.0 mi Variable 6.9 mph - N/A   Clear
4:53 PM 81.0 °F 80.4 °F 53.1 °F 38% 30.01 in 10.0 mi NNW 9.2 mph - N/A   Clear
5:53 PM 79.0 °F - 52.0 °F 39% 30.00 in 10.0 mi NNW 9.2 mph - N/A   Clear
6:53 PM 79.0 °F - 55.0 °F 44% 29.99 in 10.0 mi NNW 10.4 mph - N/A   Clear
7:53 PM 75.9 °F - 54.0 °F 46% 29.99 in 10.0 mi NW 8.1 mph - N/A   Clear
8:53 PM 73.9 °F - 55.0 °F 52% 29.99 in 10.0 mi NNW 6.9 mph - N/A   Clear
9:53 PM 72.0 °F - 55.9 °F 57% 30.01 in 10.0 mi NNW 6.9 mph - N/A   Clear
10:53 PM 69.1 °F - 55.9 °F 63% 30.04 in 10.0 mi North 4.6 mph - N/A   Clear
11:53 PM 69.1 °F - 55.9 °F 63% 30.04 in 10.0 mi NNE 3.5 mph - N/A   Clear